Tracking 27111 objects as of 28-Mar-2023
HD Live streaming from Space Station
objects crossing your sky now

NUSAT 1 DEB

Track NUSAT 1 DEB now!
10-day predictions


NORAD ID: 43427
Int'l Code: 2016-033E
Perigee: 475.6 km
Apogee: 682.5 km
Inclination: 97.6 °
Period: 96.1 minutes
Semi major axis: 6950 km
RCS: Unknown
Launch date: May 30, 2016
Source: Argentina (ARGN)
Launch site: Taiyaun Space Center, China (TSC)

Note: This is SATELLITE DEBRIS
Your satellite tracking list
Your tracking list is empty




NASA's NSSDC Master Catalog

Two Line Element Set (TLE):
1 43427U 16033E   23086.79670438  .00038122  00000-0  25332-2 0  9999
2 43427  97.5785  34.4293 0148820 286.9329  71.5626 14.98377101357676
Source of the keplerian elements: AFSPC